AO-07 1 07530U 74089B 15106.15177178 -.00000032 00000-0 70336-4 0 9992 2 07530 101.5152 083.4765 0012414 064.7244 356.1968 12.53613516849488 FO-29 1 24278U 96046B 15106.49957840 -.00000016 00000-0 21987-4 0 9996 2 24278 098.5346 083.6543 0349632 230.6572 284.7607 13.53049508921689 SO-33 1 25509U 98061B 15105.52975463 .00000864 00000-0 15508-3 0 9998 2 25509 031.4339 246.7988 0348248 244.0620 112.3725 14.29965324860445 RS-22 1 27939U 03042A 15106.51324961 .00001131 00000-0 21490-3 0 9998 2 27939 097.8347 271.1768 0012245 222.2145 137.8125 14.65942281617153 HO-68 1 36122U 09072B 15106.60263832 -.00000060 00000-0 -43517-4 0 9997 2 36122 100.2021 153.5862 0006942 261.2208 098.8130 13.16325883256354 AO-73 1 39444U 13066AE 15106.16978929 .00002911 00000-0 38059-3 0 9995 2 39444 097.7362 171.1937 0059387 339.2258 020.6541 14.79975718 74246 EO-79 1 40025U 14033R 15106.57969882 .00002830 00000-0 32262-3 0 9990 2 40025 097.9572 006.7470 0014204 030.5900 329.6127 14.86879057 44647 UO-11 1 14781U 84021B 15106.47274178 .00001287 00000-0 16750-3 0 9999 2 14781 097.8081 165.0564 0007156 272.6774 087.3621 14.82295260672884 AO-16 1 20439U 90005D 15105.83752668 .00000231 00000-0 10138-3 0 9991 2 20439 098.5370 042.9613 0010693 351.4465 071.9578 14.32521625317812 LO-19 1 20442U 90005G 15105.42025123 .00000232 00000-0 10097-3 0 9994 2 20442 098.5080 042.2969 0011393 340.1401 019.9338 14.32715508317950 AO-27 1 22825U 93061C 15105.85594639 .00000183 00000-0 88441-4 0 9990 2 22825 098.7030 055.9693 0009289 126.4154 291.6474 14.29862065124032 IO-26 1 22826U 93061D 15105.49528365 .00000197 00000-0 93106-4 0 9993 2 22826 098.6972 055.7843 0009902 120.3542 239.8620 14.30176672124129 GO-32 1 25397U 98043D 15106.11205071 .00000113 00000-0 68448-4 0 9999 2 25397 098.5140 058.5207 0002125 119.2593 304.8930 14.23534520870968 NO-44 1 26931U 01043C 15105.28810729 .00000215 00000-0 11444-3 0 9993 2 26931 067.0524 339.3413 0006139 264.4182 095.6219 14.30291170706800 SO-50 1 27607U 02058C 15106.19059840 .00001561 00000-0 24297-3 0 9996 2 27607 064.5567 028.0874 0078271 300.4226 058.9158 14.74630929662148 CO-55 1 27844U 03031E 15105.64348758 .00000414 00000-0 20787-3 0 9995 2 27844 098.6968 115.0606 0010821 118.5777 357.3222 14.21763576611554 CO-57 1 27848U 03031J 15105.51388859 .00000350 00000-0 17993-3 0 9995 2 27848 098.7066 114.8076 0010627 125.5091 025.9277 14.21415597611440 AO-51 1 28375U 04025K 15105.84577768 .00000282 00000-0 96037-4 0 9991 2 28375 098.2880 048.0991 0083226 157.0883 203.4054 14.41628287567500 CP3 1 31129U 07012N 15106.35999501 .00001529 00000-0 33823-3 0 9999 2 31129 097.9749 074.8321 0097562 145.7229 018.4187 14.55660779424129 CO-65 1 32785U 08021C 15105.86872818 .00002398 00000-0 27567-3 0 9998 2 32785 097.6562 151.7123 0011901 272.0958 197.2674 14.86647153376970 PRISM 1 33493U 09002B 15106.63897098 .00006078 00000-0 59279-3 0 9992 2 33493 098.2529 301.0545 0016931 168.5934 191.5686 14.92740999337398 SOHLA-1 1 33496U 09002E 15105.88961108 .00000783 00000-0 13506-3 0 9995 2 33496 098.2022 233.2788 0006429 013.6783 102.8246 14.71291955334010 TISAT-1 1 36799U 10035E 15106.22490434 .00005855 00000-0 64111-3 0 9993 2 36799 098.0127 205.9088 0013856 055.2592 359.0864 14.88110223257746 STUDSAT 1 36801U 10035G 15106.21638872 .00039784 00000-0 24839-2 0 9996 2 36801 098.0549 222.3636 0004789 349.4688 073.7172 15.09354801258614 ALMASAT-1 1 38078U 12006B 15106.52027834 .00078628 42639-5 13439-2 0 9991 2 38078 069.4591 035.5446 0496663 342.3947 016.0512 14.74733840165935 CUBEBUG-1 1 39153U 13018D 15106.45787040 .00002932 00000-0 40262-3 0 9995 2 39153 098.0180 191.0044 0018795 093.3396 266.9965 14.79026448106354 ESTCUBE-1 1 39161U 13021C 15106.57784136 .00001620 00000-0 27203-3 0 9997 2 39161 098.0715 190.0460 0010401 145.0473 215.1423 14.71003608104184 DUCHIFAT-1 1 40021U 14033M 15106.50504606 .00004218 00000-0 46893-3 0 9995 2 40021 097.9587 006.9113 0014908 031.7518 328.4594 14.87630986 44635 NANOSATCBR1 1 40024U 14033Q 15106.41151433 .00003333 00000-0 37535-3 0 9994 2 40024 097.9580 006.6585 0014095 031.7634 328.4445 14.87263403 44616 DTUSAT-2 1 40030U 14033W 15106.38731148 .00002902 00000-0 33392-3 0 9992 2 40030 097.9562 006.3403 0013243 026.0154 334.1693 14.86493645 44607 ANTELSAT 1 40034U 14033AA 15106.61838246 .00002292 00000-0 35903-3 0 9991 2 40034 097.9503 000.0010 0059710 318.2415 041.4245 14.72514058 44233 MET-2/21 1 22782U 93055A 15106.12130131 .00000076 00000-0 54527-4 0 9998 2 22782 082.5463 292.9233 0023305 133.1232 336.2136 13.83765843 92013 OKEAN-4 1 23317U 94066A 15105.84351074 .00001523 00000-0 16883-3 0 9995 2 23317 082.5370 143.9870 0020511 171.7535 315.4939 14.86519719108052 NOAA-14 1 23455U 94089A 15106.50681473 .00000078 00000-0 63633-4 0 9996 2 23455 098.7534 189.2231 0008428 254.1080 226.7252 14.14033840 46818 NOAA-15 1 25338U 98030A 15106.46428148 .00000290 00000-0 14119-3 0 9991 2 25338 098.7717 105.0642 0010431 354.4536 005.6526 14.25599406880048 RESURS 1 25394U 98043A 15105.90649513 .00000041 00000-0 35762-4 0 9998 2 25394 098.4591 063.2570 0002548 091.9752 332.0702 14.24452361871416 FENGYUN1 1 25730U 99025A 15105.87562802 .00002258 00000-0 12284-2 0 9998 2 25730 098.9402 070.7737 0019184 331.3649 081.5825 14.13189539820254 OKEAN-0 1 25860U 99039A 15105.88093057 .00001132 00000-0 17217-3 0 9991 2 25860 098.0881 073.8528 0001638 106.9706 305.2968 14.75947977846794 NOAA-16 1 26536U 00055A 15106.49363700 .00000087 00000-0 70489-4 0 9994 2 26536 098.9476 172.5143 0011284 051.5383 308.6800 14.13087860750949 NOAA-17 1 27453U 02032A 15106.49476764 .00000142 00000-0 78450-4 0 9993 2 27453 098.3367 095.5578 0011935 010.4043 349.7382 14.24871360665873 NOAA-18 1 28654U 05018A 15106.49304568 .00000236 00000-0 15385-3 0 9997 2 28654 099.1816 097.6414 0015083 130.9124 229.3356 14.12178550510368 NOAA-19 1 33591U 09005A 15106.44351149 .00000328 00000-0 20403-3 0 9994 2 33591 098.9845 056.1935 0013915 348.9196 011.1667 14.11912395318778 HUBBLE 1 20580U 90037B 15106.53995354 .00003732 00000-0 23038-3 0 9994 2 20580 028.4696 200.5835 0002598 298.6807 184.0830 15.07193266170506 ISS 1 25544U 98067A 15106.60723639 .00017808 00000-0 25983-3 0 9993 2 25544 051.6485 031.6699 0005592 223.2879 196.2616 15.55740901938456 CO-58 1 28895U 05043F 15105.80645653 .00001435 00000-0 29017-3 0 9998 2 28895 097.8226 296.8398 0018180 131.4727 228.8040 14.62664401504474 FALCON 1 30776U 07006E 15105.23160735 .00014676 00000-0 61021-3 0 9992 2 30776 035.4287 035.4315 0000365 356.6423 133.5581 15.23005252446698 MAST 1 31126U 07012K 15105.87437301 .00000986 00000-0 22180-3 0 9997 2 31126 097.9548 076.7633 0092166 129.6293 291.4622 14.55943901424428 CAPE1 1 31130U 07012P 15105.41495238 .00001232 00000-0 27621-3 0 9995 2 31130 097.9764 073.4189 0098152 150.4417 210.2380 14.55344832423757 COMPASS 1 32787U 08021E 15105.44023431 .00003917 00000-0 40820-3 0 9998 2 32787 097.6585 155.0309 0011726 259.1367 100.8532 14.90297790377163 AAUSAT2 1 32788U 08021F 15106.41660752 .00006709 00000-0 67794-3 0 9991 2 32788 097.6592 157.3879 0011188 251.7035 108.2967 14.91303313377390 DO-64 1 32789U 08021G 15106.25529649 .00014636 00000-0 12144-2 0 9999 2 32789 097.6795 167.2283 0009884 221.1551 179.2047 14.98852672377806 CO-66 1 32791U 08021J 15106.11722616 .00003337 00000-0 36476-3 0 9997 2 32791 097.6578 153.7168 0012441 263.5126 096.4675 14.88453228377081 RS-30 1 32953U 08025A 15106.50308028 .00000010 00000-0 -13620-7 0 9997 2 32953 082.5087 012.6019 0017769 213.8071 146.1874 12.43058686312948 METEOR-M 1 35865U 09049A 15106.57112480 .00000107 00000-0 67568-4 0 9994 2 35865 098.5066 149.1001 0002042 320.2493 039.8552 14.22011675289459 RS-38 1 35869U 09049E 15106.54557624 .00000067 00000-0 49151-4 0 9991 2 35869 098.4983 148.7367 0003854 301.6693 058.4111 14.22285365289498 JUGNU 1 37839U 11058B 15105.71115005 .00000516 00000-0 13338-3 0 9990 2 37839 019.9606 221.2611 0019143 077.7021 068.7583 14.12448797181374 SRMSAT 1 37841U 11058D 15106.54173628 .00000462 00000-0 10983-3 0 9993 2 37841 019.9713 241.6731 0011918 015.8260 058.3330 14.10464686181238 RAX-2 1 37853U 11061D 15106.46340368 .00013587 00000-0 84027-3 0 9990 2 37853 101.7157 287.2042 0199101 255.9303 132.8029 14.95040690187877 AUBIESAT 1 37854U 11061E 15105.45799922 .00011792 00000-0 70004-3 0 9999 2 37854 101.7195 288.8573 0195173 253.7616 158.3402 14.97004818187832 HRBE 1 37855U 11061F 15106.48035064 .00012878 00000-0 77651-3 0 9995 2 37855 101.7196 289.1584 0198829 253.5833 104.3437 14.95948074187928 HORYU-2 1 38340U 12025D 15105.87558711 .00002906 00000-0 44915-3 0 9995 2 38340 098.3069 074.2305 0010708 298.9250 061.0883 14.74062903156359 RS-40 1 38735U 12041C 15106.43512889 .00000040 00000-0 21992-3 0 9997 2 38735 082.4741 098.4844 0016142 319.3992 040.5873 12.42567535123240 PROITERES 1 38756U 12047B 15106.56742179 .00001204 00000-0 18366-3 0 9991 2 38756 098.2168 204.8233 0013106 131.5229 228.7113 14.75704053139914 BEESAT-3 1 39134U 13015E 15106.03248822 .00014891 00000-0 88203-3 0 9999 2 39134 064.8729 256.2434 0033417 259.6055 100.1301 15.11130933109300 BEESAT-2 1 39136U 13015G 15106.48744462 .00013618 00000-0 84004-3 0 9992 2 39136 064.8732 256.7103 0034042 259.1223 100.6068 15.09688431109348 ZACUBE-1 1 39417U 13066B 15106.18440263 .00002324 00000-0 30860-3 0 9992 2 39417 097.7358 171.0168 0060035 339.8424 020.0417 14.79495042 75467 TRITON-1 1 39427U 13066M 15105.71350918 .00001815 00000-0 30455-3 0 9992 2 39427 097.7220 160.1218 0116166 007.3573 352.9302 14.66485567 74703 DELFIN3XT 1 39428U 13066N 15106.14054546 .00003421 00000-0 57594-3 0 9997 2 39428 097.7220 158.9481 0124889 010.4751 349.9011 14.65110888 74652 GOMX-1 1 39430U 13066Q 15106.58265217 .00001820 00000-0 34548-3 0 9992 2 39430 097.7160 154.1228 0154819 024.3265 336.5172 14.57899189 74407 MO-76 1 39436U 13066W 15105.71318858 .00037024 00000-0 26923-2 0 9994 2 39436 097.7483 181.6242 0022042 313.7812 046.1589 15.03519532 76093 LO-74 1 39440U 13066AA 15105.76762857 .00002019 00000-0 29638-3 0 9999 2 39440 097.7307 166.4775 0081980 350.5830 009.3838 14.74331391 75134 PUCPSAT-1 1 39442U 13066AC 15106.17078876 .00004003 00000-0 43543-3 0 9994 2 39442 097.7439 177.6123 0032359 329.9749 029.9612 14.88231930 74644 SPROUT 1 39770U 14029E 15106.34141873 .00001312 00000-0 16533-3 0 9994 2 39770 097.8672 204.0200 0010852 049.0910 311.1274 14.83640310 48465 POPSAT-HIP1 1 40028U 14033U 15106.61213854 .00002731 00000-0 31266-3 0 9992 2 40028 097.9612 006.8425 0015477 028.5954 331.6121 14.86730406 44635 EO-80 1 40032U 14033Y 15106.66258953 .00002522 00000-0 29138-3 0 9994 2 40032 097.9568 006.6302 0013389 024.1024 336.0844 14.86445223 44644 VELOX-1 1 40057U 14034E 15106.49966711 .00002747 00000-0 41043-3 0 9999 2 40057 098.2180 183.5929 0012712 078.3536 281.9113 14.75547715 42780 DAURIA DX 1 1 40071U 14037C 15106.61815271 .00001284 00000-0 17618-3 0 9992 2 40071 098.3613 175.4881 0009975 079.0006 281.2339 14.80256374 41687 UKUBE-1 1 40074U 14037F 15106.59151524 .00002753 00000-0 35500-3 0 9998 2 40074 098.3623 176.0522 0006074 085.2284 274.9630 14.81902629 41713 HODOYOSHI-1 1 40299U 14070B 15106.63309291 .00005443 00000-0 26454-3 0 9992 2 40299 097.4577 188.9311 0013025 354.5823 139.4874 15.18772182 24472 CHUBUSAT-1 1 40300U 14070C 15106.64453132 .00005914 00000-0 30082-3 0 9995 2 40300 097.4549 188.4140 0022545 352.1998 137.8236 15.16993330 24442 QSAT-EOS 1 40301U 14070D 15106.65328003 .00010614 00000-0 55034-3 0 9992 2 40301 097.4514 187.8869 0032659 351.1816 147.5807 15.15873332 24418 TSUBAME 1 40302U 14070E 15106.62196447 .00005516 00000-0 31528-3 0 9992 2 40302 097.4494 187.1173 0043593 352.6326 137.5969 15.12280223 24368 FIREBIRD FU3 1 40377U 15003B 15106.49455717 .00013594 00000-0 69049-3 0 9998 2 40377 099.1227 128.5924 0163256 095.3686 266.6213 15.06103798 11260 FIREBIRD FU4 1 40378U 15003C 15106.49324060 .00013482 00000-0 68420-3 0 9993 2 40378 099.1222 128.5937 0163349 095.4025 266.5948 15.06125732 11267 GRIFEX 1 40379U 15003D 15106.50607196 .00011457 00000-0 58863-3 0 9990 2 40379 099.1239 128.5822 0163887 096.5546 265.4486 15.05707178 11260 LAMBDA-SAT 1 40458U 98067GB 15105.71427747 .00265784 00000-0 20027-2 0 9997 2 40458 051.6405 033.8942 0010138 200.6418 241.8802 15.71088896 16305 /EX
